Location: Heisede
(52.2582°N, 9.8523°E)
Time: 23:21:37
(UTC+00:00)

COSMOS 2406 - Pass Details

Date: 13 January 2026
Orbit: 843 x 861 km, 71.0° (Epoch: 17 February)

Event Time Altitude Azimuth Distance (km) Brightness Sun altitude
Exits shadow 05:13:34 12° 339° (NNW) 2,348 5.2 -19.2°
Maximum altitude 05:18:34 42° 48° (NE) 1,214 4.3 -18.4°
Drops below altitude 10° 05:23:59 10° 118° (ESE) 2,492 6.8 -17.6°
Sets 05:26:35 0° 126° (SE) 3,427 7.6 -17.2°
